Weather History for KSUX - July, 2013

Change the Weather History Date:

Tuesday, July 23, 2013

  Actual Average Record
Temperature  
Mean Temperature 72 °F 74 °F  
Max Temperature 81 °F 85 °F 105 °F (1934)
Min Temperature 63 °F 63 °F 49 °F (1904)
Degree Days  
Heating Degree Days 0 0  
Month to date heating degree days 0 0  
Since 1 June heating degree days 40 27  
Since 1 July heating degree days 0 0  
Cooling Degree Days 7 10  
Month to date cooling degree days 260 224  
Year to date cooling degree days 511 476  
Since 1 June cooling degree days 455 412  
Growing Degree Days 22 (Base 50)    
Moisture  
Dew Point 58 °F    
Average Humidity 61    
Maximum Humidity 87    
Minimum Humidity 36    
Precipitation  
Precipitation 0.00 in 0.11 in 1.52 in (1896)
Month to date precipitation 0.19 2.59  
Year to date precipitation 16.65 16.46  
Snow  
Snow 0.00 in 0.00 in 0.00 in ()
Month to date snowfall 0.0 0.0  
Since 1 June snowfall 0.0 0.0  
Since 1 July snowfall 0.0 0.0  
Snow Depth 0.00 in    
Sea Level Pressure  
Sea Level Pressure 29.95 in    
Wind  
Wind Speed 8 mph (NE)    
Max Wind Speed 16 mph    
Max Gust Speed 21 mph    
Visibility 10 miles    
Events      
T = Trace of Precipitation, MM = Missing Value Source: NWS Daily Summary

Daily Weather History Graph

Daily Weather History Graph

Search for Another Location

Airport or City:

Trip Planner

Search our weather history database for the weather conditions in past years. The results will help you decide how hot, cold, wet, or windy it might be!

Date:

Astronomy

Jul. 23, 2013 Rise Set
Actual Time 6:09 AM CDT 8:54 PM CDT
Civil Twilight 5:36 AM CDT 9:26 PM CDT
Nautical Twilight 4:55 AM CDT 10:07 PM CDT
Astronomical Twilight 4:07 AM CDT 10:54 PM CDT
Moon 9:19 PM CDT (7/23) 7:21 AM CDT (7/23)
Length of Visible Light 15h 50m
Length of Day
14h 44m
Full, 99% of the Moon is Illuminated
Jul 23
Full
Jul 29
Last Quarter
Aug 6
New
Aug 14
First Quarter
Aug 20
Full

Hourly Weather History & Observations

Time (CDT) Temp. Heat Index Dew Point Humidity Pressure Visibility Wind Dir Wind Speed Gust Speed Precip Events Conditions
12:52 AM 71.1 °F - 61.0 °F 70% 29.86 in 10.0 mi ENE 10.4 mph - N/A   Clear
1:52 AM 69.1 °F - 60.1 °F 73% 29.87 in 10.0 mi NE 11.5 mph - N/A   Clear
2:52 AM 66.9 °F - 57.9 °F 73% 29.89 in 10.0 mi NNE 10.4 mph - N/A   Clear
3:52 AM 66.9 °F - 57.0 °F 70% 29.89 in 10.0 mi NNE 9.2 mph - N/A   Clear
4:52 AM 66.0 °F - 57.9 °F 75% 29.94 in 10.0 mi NNW 9.2 mph - N/A   Clear
5:52 AM 64.0 °F - 59.0 °F 84% 29.95 in 10.0 mi Calm Calm - N/A   Clear
6:52 AM 64.0 °F - 60.1 °F 87% 29.96 in 10.0 mi NNE 3.5 mph - N/A   Clear
7:52 AM 66.0 °F - 57.0 °F 73% 29.95 in 10.0 mi NE 5.8 mph - N/A   Clear
8:52 AM 66.9 °F - 57.9 °F 73% 29.97 in 10.0 mi ENE 5.8 mph - N/A   Clear
9:52 AM 70.0 °F - 57.9 °F 65% 29.96 in 10.0 mi East 8.1 mph - N/A   Clear
10:52 AM 73.9 °F - 57.9 °F 57% 29.96 in 10.0 mi ENE 9.2 mph - N/A   Clear
11:52 AM 73.9 °F - 57.0 °F 55% 29.97 in 10.0 mi NE 8.1 mph 18.4 mph N/A   Clear
12:52 PM 77.0 °F - 57.9 °F 52% 29.96 in 10.0 mi NNE 13.8 mph - N/A   Clear
1:52 PM 79.0 °F - 57.9 °F 48% 29.94 in 10.0 mi ENE 11.5 mph - N/A   Clear
2:52 PM 79.0 °F - 57.0 °F 47% 29.96 in 10.0 mi NNE 9.2 mph - N/A   Clear
3:52 PM 79.0 °F - 57.0 °F 47% 29.96 in 10.0 mi NE 5.8 mph - N/A   Clear
4:52 PM 78.1 °F - 55.9 °F 46% 29.95 in 10.0 mi NE 9.2 mph - N/A   Clear
5:52 PM 80.1 °F 80.4 °F 57.0 °F 45% 29.96 in 10.0 mi Variable 5.8 mph - N/A   Clear
6:52 PM 79.0 °F - 57.0 °F 47% 29.96 in 10.0 mi ENE 4.6 mph - N/A   Clear
7:52 PM 78.1 °F - 57.0 °F 48% 29.97 in 10.0 mi NE 6.9 mph - N/A   Scattered Clouds
8:52 PM 73.9 °F - 57.9 °F 57% 29.97 in 10.0 mi NE 6.9 mph - N/A   Clear
9:52 PM 71.1 °F - 57.0 °F 61% 29.99 in 10.0 mi NNE 9.2 mph - N/A   Clear
10:52 PM 69.1 °F - 55.0 °F 61% 29.99 in 10.0 mi ENE 9.2 mph - N/A   Clear
11:52 PM 66.0 °F - 55.0 °F 68% 30.02 in 10.0 mi ENE 6.9 mph - N/A   Clear